Location: Maiden
(35.5760°N, 81.2120°W)
Time: 02:05:07
(UTC-04:00)

Cosmos 2369 Rocket - Pass Details

Date: 02 August 2020
Orbit: 829 x 852 km, 71.0° (Epoch: 11 August)

Event Time Altitude Azimuth Distance (km) Brightness Sun altitude
Rises 21:02:30 0° 332° (NNW) 3,391 6.4 -7.3°
Reaches altitude 10° 21:05:00 10° 327° (NNW) 2,456 5.7 -7.8°
Maximum altitude 21:10:24 49° 254° (WSW) 1,072 3.1 -8.7°
Drops below altitude 10° 21:15:49 10° 180° (S) 2,456 4.3 -9.7°
Sets 21:18:19 0° 175° (S) 3,391 5.0 -10.1°
